DW8522 Weather Reports


time (UTC)temp
F
wind
direction
speed
knots
gust
knots
rain 1hr
in
rain 24hr
in
rain mn
in
humidity
%
barometer
mb
20260504044537 65 113 0.0 1.7 0.00 0.00 0.00 66 1033.3
20260504043040 66 96 0.0 4.3 0.00 0.00 0.00 65 1033.3
20260504041533 67 106 0.9 2.6 0.00 0.00 0.00 62 1033.3
20260504040032 67 123 0.9 4.3 0.00 0.00 0.00 62 1033.2
20260504034530 67 96 0.9 2.6 0.00 0.00 0.00 61 1033.3
20260504033029 68 121 0.9 2.6 0.00 0.00 0.00 61 1033.3
20260504031522 68 108 0.0 3.5 0.00 0.00 0.00 60 1033.4
20260504030026 68 77 0.9 4.3 0.00 0.00 0.00 60 1033.4
20260504024520 68 93 1.7 3.5 0.00 0.00 0.00 60 1033.4
20260504023018 67 94 0.9 2.6 0.00 0.00 0.00 63 1033.3
20260504021516 68 110 0.9 2.6 0.00 0.00 0.00 61 1033.4
20260504020014 68 101 0.9 3.5 0.00 0.00 0.00 62 1033.5
20260504014517 67 96 0.9 4.3 0.00 0.00 0.00 61 1033.6
20260504013028 67 159 0.9 3.5 0.00 0.00 0.00 64 1033.6
20260504011507 66 179 0.9 2.6 0.00 0.00 0.00 62 1033.7
20260504010007 66 232 0.9 3.5 0.00 0.00 0.00 61 1033.9
20260504004504 66 134 0.9 2.6 0.00 0.00 0.00 64 1034.1
20260504003005 67 292 0.0 3.5 0.00 0.00 0.00 61 1034.2
20260504001623 67 288 1.7 4.3 0.00 0.00 0.00 62 1034.3
20260504000110 66 122 0.0 2.6 0.00 0.00 0.00 64 1034.4
20260503234604 65 134 0.0 1.7 0.00 0.00 0.00 65 1034.6
20260503233100 65 149 0.0 1.7 0.00 0.00 0.00 68 1034.7
20260503231549 64 141 0.0 1.7 0.00 0.00 0.00 68 1034.9
20260503230106 63 145 0.9 2.6 0.00 0.00 0.00 69 1035.1
20260503224545 63 166 0.0 1.7 0.00 0.00 0.00 71 1035.1
20260503223042 62 146 0.0 0.9 0.00 0.00 0.00 74 1035.0
20260503221538 61 147 0.0 1.7 0.00 0.00 0.00 76 1035.1
20260503220043 59 143 0.0 2.6 0.00 0.00 0.00 77 1035.1
20260503214532 58 143 0.0 1.7 0.00 0.00 0.00 78 1035.2
20260503213029 57 136 1.7 4.3 0.00 0.00 0.00 78 1035.2
20260503211525 56 150 0.0 3.5 0.00 0.00 0.00 83 1035.3
20260503210023 55 152 0.9 3.5 0.00 0.00 0.00 82 1035.4
20260503204521 54 144 1.7 4.3 0.00 0.00 0.00 84 1035.3
20260503203041 54 142 0.0 2.6 0.00 0.00 0.00 85 1035.1
20260503201517 54 148 0.0 1.7 0.00 0.00 0.00 86 1035.1
20260503200017 53 152 0.0 1.7 0.00 0.00 0.00 86 1035.0
20260503194533 53 150 0.0 1.7 0.00 0.00 0.00 86 1034.9
20260503193017 53 146 0.9 3.5 0.00 0.00 0.00 86 1034.8
20260503191515 53 152 0.0 2.6 0.00 0.00 0.00 86 1034.6
20260503190019 53 141 0.0 3.5 0.00 0.00 0.00 86 1034.4
20260503184522 53 143 1.7 3.5 0.00 0.00 0.00 86 1034.2
20260503183016 54 157 0.9 3.5 0.00 0.00 0.00 86 1034.1
20260503181512 54 152 0.0 1.7 0.00 0.00 0.00 86 1034.0
20260503180012 54 146 0.9 3.5 0.00 0.00 0.00 86 1033.9
20260503174511 54 144 0.9 2.6 0.00 0.00 0.00 86 1033.9
20260503173011 54 135 0.0 1.7 0.00 0.00 0.00 86 1033.8
20260503171508 54 128 0.9 5.2 0.00 0.00 0.00 87 1033.9
20260503081533 53 152 0.0 2.6 0.00 0.00 0.00 90 1033.6
20260503071519 55 115 0.0 0.0 0.00 0.00 0.00 86 1033.4